Home > Weather > Bryansk > Past weeks

Flag for Russia Past Weather in Bryansk, Russia — Yesterday and Last 2 Weeks

Now
57 °F

Clear.


Feels Like: 56 °F
Forecast: 54 / 83 °F
Wind: 6 mph from Southwest

Location: Brjansk

Current Time: Aug 28, 2016 at 5:33:58 AM

Latest Report: Aug 28, 2016 at 5:00 AM


Visibility: 10 mi

Pressure: 30.09 "Hg

Humidity: 94%

Dew Point: 55 °F

Location of BryanskLocation

Past Weather in Bryansk — Graph

°F

Bryansk Temperature Yesterday

Maximum temperature yesterday: 81 °F (at 1:30 PM)
Minimum temperature yesterday: 54 °F (at 5:00 AM)
Average temperature yesterday: 74 °F

High & Low Weather Summary for the Past Weeks

 TemperatureHumidityPressure
High88 °F (Aug 23, 2:30 PM)100% (Aug 13, 6:00 AM)30.24 "Hg (Aug 13, 6:00 AM)
Low50 °F (Aug 13, 6:00 AM)43% (Aug 23, 3:30 PM)29.77 "Hg (Aug 15, 5:00 AM)
Average67 °F72%30.06 "Hg
* Reported Aug 13 4:00 AM — Aug 28 4:00 AM, Bryansk, Weather by CustomWeather, © 2016

Note: Actual official high and low records may vary slightly from our data, if they occured in-between our weather recording intervals... More about our weather records

Advertising

Bryansk Weather History for the Previous 24 Hours

Scroll right to see more
 ConditionsComfort  
Time TempWeatherWind HumidityBarometerVisibility
4:00 AM
Sun, Aug 28
61 °FClear.6 mph83%30.09 "Hg10 mi
6:00 PM
Sat, Aug 27
79 °FSunny.8 mph54%30.15 "Hg10 mi
5:30 PM81 °FSunny.8 mph51%30.15 "Hg10 mi
5:00 PM81 °FSunny.8 mph51%30.18 "Hg10 mi
4:30 PM81 °FSunny.8 mph51%30.18 "Hg10 mi
4:00 PM81 °FSunny.10 mph48%30.18 "Hg10 mi
3:30 PM81 °FSunny.8 mph48%30.18 "Hg10 mi
3:00 PM81 °FSunny.10 mph45%30.21 "Hg10 mi
2:30 PM81 °FSunny.8 mph48%30.21 "Hg10 mi
2:00 PM81 °FPassing clouds.8 mph45%30.21 "HgN/A
1:30 PM81 °FSunny.10 mph45%30.21 "Hg10 mi
1:00 PM79 °FSunny.8 mph51%30.21 "Hg10 mi
12:30 PM79 °FSunny.8 mph48%30.24 "Hg10 mi
12:00 PM77 °FPassing clouds.8 mph54%30.24 "HgN/A
11:30 AM77 °FPassing clouds.8 mph54%30.24 "HgN/A
11:00 AM75 °FPassing clouds.6 mph57%30.24 "HgN/A
10:30 AM73 °FPassing clouds.6 mph61%30.24 "HgN/A
10:00 AM73 °FSunny.6 mph57%30.24 "Hg10 mi
9:30 AM72 °FPassing clouds.3 mph61%30.24 "HgN/A
9:00 AM70 °FPassing clouds.3 mph69%30.24 "HgN/A
8:30 AM66 °FSunny.3 mph78%30.24 "Hg10 mi
8:00 AM64 °FSunny.1 mph83%30.24 "Hg10 mi
7:00 AM57 °FSunny.No wind94%30.24 "Hg10 mi
6:00 AM54 °FSunny.1 mph94%30.24 "Hg10 mi
5:00 AM54 °FClear.No wind100%30.24 "Hg10 mi
Weather by CustomWeather, © 2016

See weather overviewHow to use our weather pages